Latest Conditions
At L.F.Wade Int. Airport
Recorded at 8:55 pm
Few Clouds
Temp.: 
27°C/81°F
Humidity: 
83%
Wind: 
SSE 11KT
or 13mph
Island Observations
Observations
Tuesday, July 29, 2014

Observations are in local time and taken at least once an hour, or upon the start and end of specified events such as showers and thunderstorms.

Time Sky / Weather Wind Speed/Gusts Temp. R.H. Pressure
     knots (mph)  °C (°F)  %  mb / "Hg
 20:55 Few Clouds  SSE 11/0 (13/0) 27(81) 83 1022 / 30.19
 19:55 Few Clouds  SSE 10/0 (12/0) 27(81) 80 1022 / 30.18
 18:55 Few Clouds  S 11/0 (13/0) 28(82) 75 1022 / 30.17
 17:55 Few Clouds  SSE 12/0 (14/0) 28(83) 74 1022 / 30.17
 16:55 Few Clouds  SSE 12/0 (14/0) 28(83) 75 1022 / 30.17
 15:55 Mostly Cloudy  SSE 12/0 (14/0) 29(83) 77 1022 / 30.18
 14:55 Few Clouds  SSE 12/0 (14/0) 29(84) 69 1022 / 30.19
 13:55 Partly Cloudy  SSE 12/0 (14/0) 28(83) 76 1022 / 30.19
 12:55 Few Clouds  SSE 12/0 (14/0) 29(84) 73 1022 / 30.19
 11:55 Partly Cloudy  SSE 12/0 (14/0) 28(83) 74 1022 / 30.19
 10:55 Few Clouds  SSE 11/0 (13/0) 28(83) 74 1022 / 30.18
 09:55 Partly Cloudy  S 11/0 (13/0) 28(83) 73 1022 / 30.18
 08:55 Few Clouds  S 10/0 (12/0) 28(82) 72 1022 / 30.17
 07:55 Few Clouds  S 10/0 (12/0) 27(80) 77 1021 / 30.16
 06:55 Few Clouds  S 12/0 (14/0) 26(79) 76 1021 / 30.15
 05:55 Partly Cloudy  S 11/0 (13/0) 26(79) 78 1021 / 30.14
 04:55 Partly Cloudy  S 12/0 (14/0) 26(79) 79 1020 / 30.13
 03:55 Partly Cloudy  S 13/0 (15/0) 26(79) 78 1020 / 30.12
 02:55 Mostly Cloudy  S 13/0 (15/0) 26(80) 80 1021 / 30.14
 01:55 Partly Cloudy  S 12/0 (14/0) 27(80) 81 1021 / 30.15
 00:55 Partly Cloudy  S 12/0 (14/0) 27(80) 79 1021 / 30.16
 23:55 Partly Cloudy  S 12/0 (14/0) 27(80) 79 1021 / 30.16
 22:55 Mostly Cloudy  S 11/0 (13/0) 27(80) 81 1022 / 30.17
 21:55 Mostly Cloudy  S 12/0 (14/0) 27(80) 79 1021 / 30.15
Observations from our AWOS sites are available here (password and username are both 'guest').